Regional Weather Roundup
Issued by NWS

Home | Current Version | Previous Version | Text Only | Print | Product List | Glossary On
Versions: 1 2 3 4 5 6 7 8 9 10 11 12 13 14 15 16 17 18 19 20 21 22 23 24 25 26 27
000
ASCA42 TJSJ 280410
RWRPR
PUERTO RICO/U.S. VIRGIN ISLANDS HOURLY WEATHER ROUNDUP
NATIONAL WEATHER SERVICE SAN JUAN PR
1200 AM AST WED JUN 28 2017

PRZ001>002-007>008-010-280500-
PUERTO RICO

CITY           SKY/WX    TMP DP  RH WIND       PRES   REMARKS
SAN JUAN LMM   PTCLDY    81  75  83 E9        30.04F
PONCE          CLEAR     79  72  78 NE6       30.05S
AGUADILLA      PTCLDY    79  73  83 E7        30.06R
CEIBA          CLOUDY    81  75  83 E8        30.06S
$$

VIZ001>002-280500-
U.S. VIRGIN ISLANDS

CITY           SKY/WX    TMP DP  RH WIND       PRES   REMARKS
CHARLOTTE AMA  CLEAR     82  75  78 E7        30.03S
CHRISTIANSTED  PTCLDY    81  75  83 NE10      30.03S
$$

HOURLY WEATHER ROUNDUP FOR THE NEWS MEDIA

CITY           SKY/WX    TMP DP  RH WIND       PRES   REMARKS
ORLANDO        PTCLDY    75  74  96 S3        30.04S
NEW YORK       PTCLDY    71  51  49 NW7       30.01R
NEWARK         PTCLDY    66  52  60 W6        30.02R
CHICAGO        PTCLDY    67  45  45 S9        30.03S
HARTFORD       CLOUDY    59  56  89 CALM      29.98R
BOSTON         MOCLDY    63  56  78 SE3       29.98R
DALLAS         PTCLDY    79  72  79 SE12      29.95R
PHILADELPHIA   PTCLDY    69  47  45 NW13      30.06R
LOS ANGELES    CLEAR     65  59  81 SW9       29.84S
WASHINGTON DC  PTCLDY    62  47  57 NW3       30.10R



USA.gov is the U.S. government's official web portal to all federal, state and local government web resources and services.